Home > Weather > Salvador > Past weeks

Flag for Brazil Weather for the Past 2 Weeks in Salvador, Bahia, Brazil

Now
81 °F

Passing clouds.


Feels Like: 84 °F
Forecast: 77 / 83 °F
Wind: 8 mph from Southeast

Location: Salvador Aeroporto

Current Time: May 6, 2016 at 12:43:03 AM

Latest Report: May 6, 2016 at 12:00 AM


Visibility: N/A

Pressure: 30.04 "Hg

Humidity: 70%

Dew Point: 70 °F

Location of SalvadorLocation

Historic Weather in Salvador — Graph

°F

Salvador Temperature Yesterday

Maximum temperature yesterday: 84 °F (at 10:00 AM)
Minimum temperature yesterday: 72 °F (at 4:00 AM)
Average temperature yesterday: 79 °F

High & Low Weather Summary for the Past Weeks

 TemperatureHumidityPressure
High88 °F (Apr 21, 11:00 AM)100% (May 3, 10:00 AM)30.07 "Hg (May 3, 10:00 AM)
Low39 °F (May 3, 8:00 PM)52% (Apr 26, 10:00 AM)29.86 "Hg (Apr 24, 4:00 PM)
Average81 °F72%29.95 "Hg
* Reported Apr 20 11:00 PM — May 5 11:00 PM, Salvador, Weather by CustomWeather, © 2016

Note: Actual official high and low records may vary slightly from our data, if they occured in-between our weather recording intervals... More about our weather records

Advertising

Salvador Weather History for the Previous 24 Hours

Scroll right to see more
 ConditionsComfort  
Time TempWeatherWind HumidityBarometerVisibility
11:00 PM
Thu, May 5
81 °FPassing clouds.9 mph70%30.04 "HgN/A
10:00 PM81 °FPassing clouds.8 mph70%30.04 "HgN/A
9:00 PM81 °FClear.7 mph70%30.04 "Hg10 mi
8:00 PM81 °FClear.6 mph66%30.04 "Hg10 mi
7:00 PM81 °FPassing clouds.6 mph62%30.01 "HgN/A
6:00 PM81 °FPassing clouds.6 mph62%30.01 "HgN/A
5:00 PM82 °FScattered clouds.8 mph58%29.98 "HgN/A
4:00 PM82 °FScattered clouds.6 mph62%29.98 "HgN/A
3:00 PM84 °FScattered clouds.8 mph62%29.98 "HgN/A
2:00 PM84 °FScattered clouds.7 mph62%29.98 "HgN/A
1:00 PM84 °FScattered clouds.8 mph62%30.01 "HgN/A
12:00 PM84 °FPassing clouds.8 mph66%30.04 "HgN/A
11:00 AM84 °FScattered clouds.7 mph62%30.04 "HgN/A
10:00 AM84 °FScattered clouds.6 mph62%30.07 "HgN/A
9:00 AM82 °FScattered clouds.7 mph66%30.07 "HgN/A
8:00 AM81 °FScattered clouds.2 mph79%30.04 "HgN/A
7:00 AM75 °FScattered clouds.1 mph89%30.01 "HgN/A
6:00 AM73 °FPassing clouds.No wind89%30.01 "HgN/A
5:00 AM73 °FPassing clouds.2 mph89%29.98 "Hg6 mi
4:00 AM72 °FPassing clouds.No wind94%29.98 "Hg6 mi
3:00 AM73 °FPassing clouds.2 mph89%29.95 "Hg6 mi
2:00 AM73 °FPassing clouds.2 mph94%29.98 "Hg6 mi
1:00 AM75 °FPassing clouds.2 mph89%29.98 "HgN/A
12:00 AM75 °FPassing clouds.2 mph94%30.01 "HgN/A
Weather by CustomWeather, © 2016

See weather overviewHow to use our weather pages